Back to catalog

DELTA 1 DEB

AliveSSO
NORAD 21292·DEBRIS·🇺🇸 United States

Launched Jun 12, 1975 from Vandenberg Space Force Base

Loading…

Next Passes (next 24 hours)

TLE

FreshSource: Space-Track

Epoch: Sep 14, 2026, 11:34 UTC

1 21292U 75052AD  26257.48202812 -.00000006  00000-0  45918-4 0  9992
2 21292  99.7613 132.8109 0222345 214.0382 270.2052 13.58671502749562

Track DELTA 1 DEB in real time with AllMySat

Download on the App Store